Vertical_Velocity
4 -1 5 1 1 -1 -2 -0 -1 3 2 0 -1 1 3 3 2 5 9 1 0 5 1 0 2 2 2 2 0 1 -3 -1 -2 -0 1 3 2 -0 1 2 1 1 -3 3 1 -6 -1 4 1 -1 -4 -1 -1 2
1 -0 2 1 -0 -2 1 -0 3 3 0 1 1 4 2 2 3 -1 -2 -1 1 0 7 1 2 -1 4 -4 -2 -5 -2 4 -3 -3 -2 -4 -2 -1 2 3 -0 -2 -5 -4 -2 4 -2 -3 1 0 1 1 0 2
-1 -1 -0 -3 -2 1 -0 -2 -3 6 2 -1 1 1 2 1 -2 12 -3 -1 3 6 0 -0 2 -1 -1 -1 -0 3 -3 -1 -2 -2 -1 -2 -4 -0 1 3 2 1 -2 -2 -6 11 -0 -7 -2 2 -1 2 1 1
0 -0 -2 0 0 -3 -2 -1 0 4 5 -0 1 1 2 0 3 0 7 1 -0 0 2 1 0 -1 1 1 1 1 1 -1 0 -1 -2 -1 -1 2 1 -3 5 5 1 -3 -1 6 -4 5 0 -3 -1 -1 -1 -1
-4 -2 -2 -3 -2 -0 1 1 -2 -0 8 5 -1 1 1 -0 0 1 1 1 1 -3 4 2 0 1 1 -0 0 1 0 -0 -2 -1 -0 -3 -2 -6 2 0 14 2 1 -5 -4 -1 -4 8 4 -1 2 1 0 -1
-0 -0 1 -0 0 -4 2 2 1 4 1 0 2 7 -0 1 1 2 0 -1 0 0 1 -1 3 1 0 0 1 1 0 -2 -3 -3 -3 -0 -1 -9 -8 2 24 -6 -2 -5 -0 -3 -3 1 3 1 -1 -4 -1 -1
3 -0 -0 1 1 5 0 2 3 2 1 -1 -3 -2 0 0 1 -1 3 6 0 -0 -1 -0 -2 1 1 2 1 0 -2 -1 -2 -2 -1 -3 -1 -9 -1 1 15 -3 -4 -0 -3 -7 5 -3 -1 3 -1 -1 -1 -0
-2 13 -1 1 -3 3 -1 2 1 2 1 1 -1 -1 -0 0 1 1 1 -1 -1 -0 -3 -2 -0 1 1 3 -1 -1 -2 -2 2 -1 2 -3 -3 -3 -6 12 5 1 1 0 -1 -3 -6 -4 -0 -0 2 1 3 0
2 1 3 4 1 -0 4 0 5 4 2 1 1 1 2 2 1 1 1 1 0 -0 -2 3 5 4 3 3 -0 -3 -5 -5 -5 -0 -1 -10 3 0 -4 3 4 3 -1 0 3 1 -1 0 2 -2 -1 1 1 -0
-1 0 2 4 9 18 -2 1 3 3 1 -0 -1 0 2 1 2 1 -1 -3 -2 -2 -1 1 6 0 3 4 1 -4 -3 -6 -7 3 -8 -4 -1 6 3 -0 1 -0 -1 0 2 -1 -2 1 1 -3 -4 -0 1 -1
2 -1 -7 1 2 3 11 18 5 -3 -2 -1 1 3 3 -1 -3 -2 -6 -2 2 -1 4 6 4 4 6 -2 -2 -4 -4 -7 -8 4 -6 -4 -2 9 6 -0 3 5 1 -1 0 1 -3 -3 -1 1 -2 -0 4 3
2 0 2 -0 -2 -1 -1 -6 -6 -5 -2 -1 2 -2 -1 -3 1 -10 -4 1 2 1 3 6 6 -3 -3 -2 -2 2 -4 -11 -8 4 -2 -8 7 8 1 1 6 1 2 2 2 0 1 -0 -1 -3 -2 -0 1 -1
7 4 4 2 0 -1 1 3 3 2 4 4 3 2 0 -2 -8 -6 -1 5 5 5 8 3 -2 -2 -1 0 -4 -1 -5 -7 1 -7 -9 6 1 -0 3 3 3 2 3 3 1 6 7 6 6 4 1 -5 -6 1
1 3 2 2 0 2 3 1 -1 -1 4 0 1 0 -7 -1 -7 1 5 4 1 1 2 1 -0 -1 5 -2 0 1 -4 -2 -9 -0 5 1 -7 1 -3 -4 -1 -3 -2 1 -1 -3 -2 -2 -1 -0 -0 3 8 13
-2 -1 1 2 1 -0 -1 0 1 1 1 -0 1 -4 -2 1 -1 2 2 2 2 -1 2 1 2 -1 3 -3 -2 -1 -1 -2 -3 -0 -2 2 -4 -4 -5 -4 -1 2 2 3 2 2 2 1 2 3 3 1 -1 -1
2 -0 -2 -0 0 1 1 0 1 1 0 -0 -1 -1 -1 1 -2 -2 -1 -1 1 1 0 -1 -0 -2 4 -1 3 2 1 2 1 4 -1 -2 -3 -2 -2 -4 -3 -0 -0 -1 -2 -1 2 1 0 2 4 3 1 -3
4 3 4 4 2 0 2 -0 -0 -0 -2 -0 1 1 1 1 -0 0 1 -1 -0 1 2 -0 1 2 -0 -5 0 2 -1 1 2 3 5 -1 -2 -2 1 4 3 -2 -1 2 2 2 4 1 -3 -2 -1 -1 -3 -4
1 1 1 3 4 3 3 3 4 4 2 2 2 1 0 1 1 1 2 2 3 2 1 1 4 -0 -0 -1 -1 1 0 1 0 0 0 0 1 3 2 1 3 1 2 2 2 3 0 -1 -1 -0 -1 -2 -2 -6
-0 2 2 1 -1 1 1 1 3 3 1 -1 1 2 1 -1 1 1 0 0 1 0 2 1 -1 2 -0 -1 0 1 -1 0 1 0 0 0 1 -2 -2 1 1 1 0 1 1 0 -2 0 -3 -3 -2 -3 -1 1
2 0 1 -1 3 1 1 2 2 2 1 -2 0 0 1 2 1 1 1 0 0 0 0 1 -1 -2 -1 -2 -1 0 -1 -0 -1 -3 -3 -0 1 1 1 2 5 1 0 3 1 1 -2 -3 -4 -4 -4 -5 -6 -1
-1 2 2 1 -0 1 0 2 2 -0 -1 -1 -2 0 3 1 1 1 -0 1 -3 4 -1 -2 -3 -2 -2 -1 -2 -2 -0 1 1 -1 -1 2 1 1 2 -1 -0 2 2 0 -3 -0 -0 -0 -1 -0 -0 1 -0 -2
0 2 2 2 1 4 -0 1 -0 1 -2 3 1 0 -1 -1 -0 -1 -1 -2 -3 4 -0 -1 -2 -2 -3 -3 -1 1 1 0 -2 -2 1 0 2 -3 -1 -1 0 -0 1 0 1 0 -2 -0 1 1 0 0 -1 2
-2 -2 -3 -3 -3 -0 -3 -2 -1 -2 -5 2 -2 -3 -0 1 1 -1 -9 0 0 0 -2 -2 -1 -3 -1 1 1 -0 1 1 2 0 1 1 -2 -1 0 1 1 0 -1 -1 -1 -1 0 -2 -2 -1 -2 -1 -4 0
-2 -3 -1 -1 -2 -9 -6 -4 -5 -7 -3 -7 -6 -4 -1 4 -1 -5 -6 -0 2 2 2 2 1 1 0 2 -0 1 0 -2 -0 -1 -2 -2 0 1 1 1 0 0 0 1 3 3 0 -1 -2 -3 -6 -5 -4 -6
-1 -3 -2 -7 -8 -4 -3 -6 -5 -5 -1 -3 -4 -2 2 4 1 -2 -0 2 4 5 4 2 0 2 1 1 2 1 0 -1 -1 -2 -0 1 0 0 1 1 1 1 1 2 -1 -2 -4 -4 -5 -3 -4 -6 -4 -1
-1 -9 -2 -9 -8 -1 -8 -4 -5 -4 -5 -2 -4 -3 -3 -4 -0 -4 7 7 5 5 2 3 1 -0 -0 0 -1 -0 1 1 1 1 1 1 0 -0 -1 -0 -0 -7 -7 -7 -5 -1 -3 -4 -1 2 1 -0 -2 -2
-2 -4 -9 -5 -5 -6 -3 -3 -4 -6 -3 -6 -5 -6 -1 0 -3 2 2 3 6 6 12 11 9 3 2 2 0 -0 -0 0 0 1 2 1 1 1 0 -0 -0 -1 -1 -1 -3 -2 1 2 0 0 2 -2 -2 -1
-4 -2 -5 -4 -4 -4 -3 -3 -3 -2 -3 -2 -1 0 0 -4 1 -6 -1 3 5 3 0 -2 -5 -2 1 2 0 -1 0 2 1 1 -0 0 -1 -3 -3 -4 -3 -1 0 1 -0 -4 -2 -2 -1 -1 -1 1 0 -1
-2 -1 -2 -3 -2 -3 -2 -1 0 1 -0 -1 -2 -2 -1 -0 4 4 3 2 1 1 1 2 1 -0 -0 1 2 3 3 2 2 -0 -1 -1 -2 -2 -3 -2 -1 -2 -2 -5 -6 -1 -2 -2 -1 -1 -1 -0 0 1
1 1 1 1 1 1 1 2 2 -0 -2 -1 -1 -1 -1 -1 1 2 1 1 1 1 1 1 3 4 2 1 0 -1 -3 -5 -6 -4 -2 -1 -3 -3 -1 -1 -2 -2 -1 -2 -1 -3 -3 -2 -4 -4 -4 -5 -5 -4
-1 -1 -1 -1 -1 -3 -0 -1 -1 -0 2 2 2 2 1 1 1 -1 -0 1 0 0 0 -0 -0 0 -1 -0 -1 -2 0 -1 -2 -1 -1 -3 -2 -1 -2 -2 -1 0 0 -0 -0 -0 -1 -0 -1 -2 -1 -2 -2 -2
-3 -4 -3 -2 2 -0 1 0 -0 -1 -1 -1 2 1 0 -1 -1 3 1 -2 -2 -2 -1 -1 -2 -2 -1 -2 -1 -1 -3 -2 -1 -1 -3 -1 -2 -2 -0 -0 -0 0 -0 -1 -1 -1 -1 -1 -1 -1 -1 -2 -2 -2
-2 -2 -1 -1 -0 0 -1 -0 -1 -0 1 0 2 -0 2 -0 -2 -3 -4 -4 -3 -2 -1 -1 -0 -0 -0 0 -0 -2 -1 0 0 -1 1 1 0 0 0 -1 0 0 -0 -1 -1 -1 -1 -0 0 -0 -1 -1 -1 -2
Height
5474 5488 5500 5513 5527 5539 5550 5560 5570 5578 5588 5597 5605 5614 5623 5631 5640 5648 5658 5666 5675 5682 5690 5696 5702 5708 5712 5717 5720 5722 5725 5726 5727 5728 5729 5730 5729 5730 5730 5730 5730 5729 5727 5727 5724 5722 5719 5720 5717 5714 5710 5706 5702 5699
5486 5497 5509 5521 5531 5542 5553 5562 5572 5581 5589 5597 5606 5614 5621 5629 5638 5645 5654 5663 5671 5678 5685 5691 5697 5703 5707 5709 5713 5715 5719 5721 5721 5722 5723 5723 5723 5723 5723 5722 5721 5719 5719 5717 5716 5715 5710 5706 5703 5700 5698 5694 5691 5687
5494 5506 5517 5527 5537 5546 5555 5565 5575 5582 5590 5598 5606 5614 5621 5628 5637 5646 5651 5659 5666 5674 5680 5686 5692 5696 5700 5703 5705 5709 5711 5713 5713 5714 5714 5714 5714 5714 5713 5712 5710 5708 5707 5706 5704 5704 5698 5694 5691 5690 5685 5681 5678 5674
5504 5515 5523 5532 5540 5549 5558 5568 5576 5584 5592 5599 5606 5614 5620 5628 5635 5641 5649 5655 5662 5669 5675 5680 5684 5689 5693 5696 5698 5700 5702 5704 5704 5705 5705 5705 5705 5704 5704 5702 5698 5698 5697 5694 5690 5689 5685 5684 5682 5677 5674 5671 5667 5663
5511 5520 5529 5537 5545 5553 5561 5571 5578 5586 5593 5600 5606 5613 5620 5627 5634 5640 5646 5652 5658 5665 5670 5674 5678 5682 5685 5688 5690 5692 5693 5694 5695 5695 5695 5695 5694 5694 5692 5690 5688 5688 5685 5680 5678 5678 5675 5674 5670 5666 5663 5660 5656 5651
5521 5528 5533 5541 5548 5556 5565 5572 5580 5587 5594 5601 5607 5613 5619 5626 5633 5638 5643 5649 5654 5659 5665 5668 5672 5675 5677 5679 5681 5683 5684 5685 5685 5685 5685 5684 5685 5684 5680 5680 5682 5679 5673 5670 5669 5667 5664 5661 5658 5654 5651 5647 5642 5638
5523 5530 5537 5544 5552 5560 5567 5574 5581 5589 5595 5601 5607 5613 5618 5624 5630 5635 5641 5646 5650 5654 5658 5662 5664 5667 5670 5672 5673 5674 5675 5676 5676 5676 5676 5676 5677 5674 5672 5671 5674 5667 5663 5662 5659 5655 5654 5651 5648 5644 5640 5635 5629 5624
5526 5534 5540 5547 5554 5562 5569 5576 5583 5590 5596 5602 5607 5612 5618 5623 5628 5633 5637 5641 5645 5648 5652 5655 5658 5662 5663 5665 5665 5666 5667 5668 5668 5668 5668 5667 5666 5663 5662 5665 5661 5658 5655 5652 5648 5645 5642 5639 5635 5631 5627 5622 5617 5613
5527 5534 5541 5549 5557 5564 5571 5578 5584 5590 5596 5602 5607 5611 5617 5621 5625 5630 5634 5637 5640 5645 5646 5650 5653 5656 5656 5657 5658 5658 5658 5658 5658 5657 5657 5656 5656 5654 5653 5652 5650 5647 5644 5641 5637 5634 5631 5627 5623 5618 5614 5610 5605 5600
5529 5534 5541 5550 5557 5564 5571 5577 5583 5589 5595 5600 5605 5610 5614 5618 5622 5626 5629 5632 5635 5637 5640 5643 5645 5647 5650 5650 5650 5650 5648 5647 5645 5647 5645 5645 5645 5643 5642 5640 5638 5635 5631 5628 5625 5621 5617 5614 5609 5605 5601 5597 5592 5587
5531 5536 5542 5550 5556 5561 5567 5574 5581 5587 5592 5597 5601 5606 5610 5614 5617 5620 5622 5624 5628 5630 5633 5635 5638 5639 5640 5640 5639 5638 5636 5636 5637 5637 5635 5634 5634 5633 5630 5628 5626 5623 5620 5617 5613 5609 5605 5600 5596 5591 5586 5582 5578 5572
5535 5540 5546 5552 5557 5562 5567 5572 5577 5582 5586 5591 5596 5600 5604 5607 5610 5612 5612 5617 5619 5623 5626 5630 5631 5630 5629 5628 5627 5627 5627 5626 5625 5626 5623 5623 5623 5621 5619 5616 5614 5611 5608 5604 5600 5595 5591 5587 5582 5577 5572 5567 5563 5557
5536 5540 5545 5549 5554 5559 5564 5569 5573 5578 5582 5586 5590 5594 5596 5600 5601 5602 5604 5609 5614 5616 5618 5619 5620 5620 5619 5619 5618 5617 5615 5615 5615 5614 5611 5612 5611 5608 5606 5604 5601 5597 5593 5589 5585 5582 5578 5573 5568 5562 5557 5552 5548 5544
5534 5539 5543 5547 5551 5555 5560 5565 5569 5573 5577 5580 5584 5587 5589 5591 5593 5596 5600 5604 5606 5607 5608 5608 5609 5610 5610 5609 5609 5608 5606 5604 5603 5603 5603 5601 5598 5596 5593 5590 5586 5582 5578 5574 5570 5565 5560 5556 5552 5548 5544 5540 5536 5530
5532 5537 5541 5545 5548 5552 5557 5560 5565 5569 5572 5575 5578 5580 5582 5585 5587 5590 5593 5595 5596 5597 5598 5599 5599 5599 5600 5599 5599 5597 5596 5595 5593 5592 5590 5586 5583 5579 5576 5573 5571 5567 5563 5559 5554 5550 5546 5542 5538 5534 5529 5525 5520 5514
5527 5532 5537 5540 5544 5547 5551 5555 5559 5563 5566 5569 5571 5573 5576 5579 5581 5582 5583 5585 5587 5587 5588 5589 5589 5589 5588 5587 5587 5586 5584 5583 5582 5579 5575 5572 5569 5565 5562 5559 5556 5552 5548 5544 5540 5536 5532 5527 5523 5518 5513 5509 5503 5497
5523 5527 5531 5535 5538 5542 5545 5549 5552 5555 5558 5560 5563 5565 5568 5570 5572 5573 5574 5575 5576 5577 5578 5577 5577 5576 5575 5573 5573 5572 5571 5569 5567 5565 5561 5558 5556 5552 5549 5545 5541 5538 5535 5531 5527 5523 5518 5513 5509 5504 5500 5494 5488 5482
5521 5523 5527 5530 5534 5536 5539 5542 5545 5547 5549 5551 5554 5556 5558 5560 5562 5563 5564 5564 5565 5564 5564 5565 5564 5564 5563 5562 5562 5560 5558 5556 5554 5551 5548 5545 5542 5539 5536 5532 5527 5523 5521 5517 5512 5508 5504 5499 5495 5490 5485 5480 5474 5467
5518 5520 5523 5525 5528 5530 5533 5534 5537 5538 5540 5542 5543 5545 5546 5548 5549 5551 5552 5552 5553 5553 5553 5552 5552 5551 5550 5549 5549 5547 5545 5543 5541 5538 5534 5531 5527 5524 5521 5517 5513 5510 5506 5502 5498 5493 5489 5485 5481 5476 5471 5465 5459 5452
5517 5520 5521 5523 5524 5526 5528 5529 5530 5532 5533 5535 5536 5537 5538 5539 5540 5541 5541 5542 5543 5544 5543 5543 5541 5541 5541 5539 5538 5536 5533 5530 5527 5523 5520 5518 5514 5510 5506 5503 5499 5495 5492 5489 5484 5480 5475 5470 5465 5459 5453 5446 5440 5433
5514 5516 5518 5519 5521 5523 5524 5524 5525 5527 5527 5529 5529 5530 5531 5532 5532 5532 5533 5533 5534 5534 5532 5531 5530 5529 5528 5526 5524 5521 5518 5515 5512 5509 5506 5503 5499 5496 5493 5489 5486 5483 5479 5475 5471 5466 5461 5456 5450 5444 5437 5429 5422 5414
5510 5511 5512 5514 5515 5516 5517 5518 5519 5519 5520 5521 5521 5521 5522 5522 5522 5522 5521 5522 5523 5522 5519 5517 5515 5514 5513 5511 5509 5506 5504 5501 5496 5493 5491 5488 5485 5483 5480 5477 5474 5470 5467 5462 5457 5452 5446 5440 5433 5425 5418 5411 5404 5396
5505 5505 5506 5507 5508 5508 5509 5510 5510 5509 5510 5510 5510 5510 5510 5510 5509 5507 5507 5509 5509 5507 5504 5503 5501 5499 5498 5495 5493 5490 5488 5486 5483 5481 5480 5477 5474 5471 5468 5464 5461 5457 5452 5447 5442 5436 5429 5422 5415 5407 5400 5392 5384 5376
5497 5497 5497 5497 5497 5498 5498 5498 5497 5497 5497 5495 5495 5495 5495 5493 5491 5490 5491 5493 5492 5489 5487 5486 5485 5483 5482 5480 5479 5477 5475 5474 5472 5471 5468 5465 5462 5459 5455 5451 5447 5443 5438 5433 5426 5419 5412 5405 5396 5388 5380 5371 5362 5354
5486 5486 5485 5483 5484 5484 5482 5481 5480 5479 5479 5476 5476 5475 5475 5472 5471 5471 5473 5475 5474 5472 5471 5471 5471 5470 5470 5470 5469 5467 5466 5464 5462 5459 5456 5453 5449 5445 5441 5437 5432 5427 5422 5416 5409 5402 5394 5386 5378 5369 5360 5351 5343 5335
5474 5472 5473 5471 5469 5470 5467 5466 5464 5462 5460 5458 5457 5456 5454 5453 5453 5453 5457 5458 5459 5460 5461 5462 5462 5462 5461 5460 5459 5457 5455 5452 5450 5446 5443 5439 5435 5431 5427 5422 5416 5409 5403 5398 5392 5385 5377 5368 5360 5353 5343 5334 5326 5318
5463 5462 5461 5461 5461 5460 5459 5458 5457 5456 5455 5454 5452 5451 5450 5448 5446 5447 5448 5451 5452 5454 5454 5454 5453 5453 5452 5450 5447 5445 5442 5439 5436 5432 5428 5424 5420 5416 5411 5406 5400 5394 5387 5380 5373 5367 5360 5352 5344 5335 5327 5318 5310 5302
5459 5458 5459 5459 5458 5457 5456 5455 5455 5454 5453 5451 5449 5448 5447 5446 5445 5444 5445 5445 5446 5446 5446 5445 5444 5443 5441 5438 5435 5432 5429 5425 5421 5417 5413 5409 5404 5398 5393 5388 5382 5376 5369 5362 5356 5348 5341 5333 5326 5318 5312 5304 5297 5289
5457 5457 5457 5456 5455 5454 5453 5452 5451 5450 5449 5447 5446 5445 5444 5442 5442 5441 5440 5439 5439 5438 5437 5435 5433 5430 5428 5424 5421 5418 5414 5410 5406 5401 5397 5392 5386 5381 5375 5369 5363 5356 5350 5343 5336 5330 5324 5318 5312 5305 5298 5292 5284 5278
5455 5455 5454 5453 5451 5450 5449 5448 5446 5445 5444 5442 5441 5439 5438 5436 5435 5434 5432 5431 5429 5427 5425 5423 5421 5418 5414 5411 5406 5402 5398 5394 5389 5385 5379 5374 5368 5362 5356 5351 5345 5339 5333 5327 5321 5316 5310 5304 5298 5292 5286 5279 5272 5265
5452 5451 5450 5449 5447 5446 5444 5443 5441 5440 5438 5436 5434 5433 5430 5429 5427 5425 5423 5420 5418 5415 5413 5410 5407 5403 5399 5395 5391 5387 5382 5377 5372 5366 5361 5355 5350 5345 5339 5334 5329 5324 5319 5315 5310 5305 5300 5294 5288 5283 5277 5271 5264 5256
5447 5445 5444 5442 5440 5438 5436 5435 5433 5431 5430 5428 5426 5424 5422 5419 5417 5416 5413 5410 5407 5404 5400 5396 5392 5387 5383 5379 5374 5370 5365 5360 5355 5350 5345 5340 5334 5329 5324 5320 5316 5312 5308 5304 5299 5294 5289 5285 5280 5274 5268 5262 5255 5247
5437 5435 5433 5431 5429 5427 5425 5423 5422 5420 5419 5418 5417 5415 5413 5410 5408 5405 5402 5398 5395 5391 5386 5381 5377 5373 5368 5364 5359 5354 5349 5345 5339 5334 5330 5325 5320 5316 5311 5307 5304 5301 5297 5293 5288 5284 5279 5275 5271 5265 5259 5253 5246 5238